Silver Bergen — LAHO6 — position and weather

sailwx.info

Track history (hours):
 
Tides and Currents Weather Stations Pressure Air Temp Water Temp Dewpoint Dewpoint Depression Visibility Wind Speed Wind Dir Waves Ship Positions

Silver Bergen

Last reported at 2014-Oct-30 07:11 UTC. Time now 2014-Nov-01 01:19 UTC.
Position N 55°32' E 015°03'.

Length 97 m; draft 5.9 m.

Type: Cargo ship. MMSI: 257951000.

Date/timePositionNaut miles runAvg speedWind from/ knotsBaromVisibWave heightAir tempDewpointWater temp
2014-Oct-30 07:11N 55°32' E 015°03'914.4
2014-Oct-30 06:33N 55°27' E 014°49'1414.4
2014-Oct-30 05:33N 55°17' E 014°30'4613.7
2014-Oct-30 02:12N 55°13' E 013°10'1014.3
2014-Oct-30 01:28N 55°15' E 012°52'1111.8
2014-Oct-30 00:34N 55°22' E 012°39'1414.1
2014-Oct-29 23:34N 55°36' E 012°42'1515.0
2014-Oct-29 22:34N 55°51' E 012°40'1414.2
2014-Oct-29 21:34N 56°05' E 012°34'1515.4
2014-Oct-29 20:34N 56°14' E 012°12'2014.5
2014-Oct-29 19:10N 56°33' E 011°56'1114.9
2014-Oct-29 18:24N 56°43' E 011°51'2814.3
2014-Oct-29 16:26N 57°10' E 011°34'1314.3
2014-Oct-29 15:33N 57°22' E 011°27'1414.1
2014-Oct-29 14:34N 57°33' E 011°11'1514.6
2014-Oct-29 13:34N 57°43' E 010°51'1514.7
2014-Oct-29 12:33N 57°46' E 010°24'12713.7
2014-Oct-29 03:16N 58°01' E 006°26'1013.7
2014-Oct-29 02:33N 58°06' E 006°09'41612.9
2014-Oct-27 18:21N 61°44' W 005°36'1113.9
2014-Oct-27 17:34N 61°51' W 005°53'1414.2
2014-Oct-27 16:34N 62°01' W 006°16'1514.0
2014-Oct-27 15:31N 62°12' W 006°37'2 0.1
2014-Oct-26 21:25N 62°10' W 006°35'8 9.7
2014-Oct-26 20:33N 62°03' W 006°45'6 5.7
2014-Oct-26 19:32N 62°06' W 006°56'0 0.0
2014-Oct-26 18:32N 62°06' W 006°56'0 0.0
2014-Oct-26 17:32N 62°06' W 006°56'0 0.0
2014-Oct-26 16:32N 62°06' W 006°56'0 0.0
2014-Oct-26 15:29N 62°06' W 006°56'0 0.0
2014-Oct-26 14:32N 62°06' W 006°56'0 0.0
2014-Oct-26 13:32N 62°06' W 006°56'0 0.0
2014-Oct-26 12:32N 62°06' W 006°56'0 0.0
2014-Oct-26 11:32N 62°06' W 006°56'0 0.0
2014-Oct-26 10:29N 62°06' W 006°56'0 0.0
2014-Oct-26 09:32N 62°06' W 006°56'0 0.0
2014-Oct-26 08:29N 62°06' W 006°56'0 0.0
2014-Oct-26 07:32N 62°06' W 006°56'0 0.0
2014-Oct-26 06:32N 62°06' W 006°56'0 0.0
2014-Oct-26 05:29N 62°06' W 006°56'0 0.0
2014-Oct-26 04:32N 62°06' W 006°56'0 0.0
2014-Oct-26 03:29N 62°06' W 006°56'0 0.0
2014-Oct-26 02:32N 62°06' W 006°56'0 0.0
2014-Oct-26 01:29N 62°06' W 006°56'0 0.0
2014-Oct-26 00:32N 62°06' W 006°56'0 0.0
2014-Oct-25 23:32N 62°06' W 006°56'0 0.0
2014-Oct-25 22:26N 62°06' W 006°56'0 0.0
2014-Oct-25 21:29N 62°06' W 006°56'0 0.0
2014-Oct-25 20:32N 62°06' W 006°56'0 0.0
2014-Oct-25 19:32N 62°06' W 006°56'0 0.1
2014-Oct-25 18:34N 62°06' W 006°56'6 6.0
2014-Oct-25 17:34N 62°03' W 006°45'6 6.1
2014-Oct-25 16:33N 61°58' W 006°51'9 8.9
2014-Oct-25 15:33N 62°05' W 007°02'2 0.2
2014-Oct-25 06:32N 62°03' W 007°02'1110.8
2014-Oct-25 05:33N 61°57' W 006°42'9 8.6
2014-Oct-25 04:34N 61°50' W 006°35'1414.0
2014-Oct-25 03:32N 61°36' W 006°41'6 0.1
2014-Oct-23 07:29N 61°31' W 006°35'36711.0
2014-Oct-21 22:12N 59°10' E 004°49'1014.6
2014-Oct-21 21:33N 59°02' E 004°58'1413.7
2014-Oct-21 20:33N 58°50' E 005°12'1612.9
2014-Oct-21 19:17N 58°36' E 005°28'913.1
2014-Oct-21 18:33N 58°28' E 005°38'1312.9
2014-Oct-21 17:34N 58°19' E 005°55'1413.9
2014-Oct-21 16:33N 58°09' E 006°14'13513.5
2014-Oct-21 06:33N 57°50' E 010°26'1110.8
2014-Oct-21 05:33N 57°48' E 010°46'1211.7
2014-Oct-21 04:33N 57°40' E 011°02'1211.8
2014-Oct-21 03:34N 57°32' E 011°18'1211.7
2014-Oct-21 02:33N 57°23' E 011°30'1211.9
2014-Oct-21 01:33N 57°12' E 011°39'1212.0
2014-Oct-21 00:33N 57°01' E 011°49'1211.8
2014-Oct-20 23:34N 56°50' E 011°58'1211.8
2014-Oct-20 22:33N 56°39' E 012°06'1111.5
2014-Oct-20 21:33N 56°29' E 012°15'1212.2
2014-Oct-20 20:34N 56°18' E 012°23'1312.9
2014-Oct-20 19:33N 56°06' E 012°34'1110.8
2014-Oct-20 18:33N 55°57' E 012°43'1212.0
2014-Oct-20 17:33N 55°45' E 012°42'1111.3
2014-Oct-20 16:33N 55°33' E 012°42'1312.9
2014-Oct-20 15:33N 55°21' E 012°40'1312.7
2014-Oct-20 14:33N 55°16' E 013°01'2813.9
2014-Oct-20 12:33N 55°14' E 013°50'1414.0
2014-Oct-20 11:33N 55°14' E 014°14'1313.1
2014-Oct-20 10:33N 55°24' E 014°29'1413.8
2014-Oct-20 09:33N 55°32' E 014°49'1513.6
2014-Oct-20 08:26N 55°39' E 015°12'1313.7
2014-Oct-20 07:30N 55°46' E 015°32'  
Track history (hours):
 
Tides and Currents Weather Stations Pressure Air Temp Water Temp Dewpoint Dewpoint Depression Visibility Wind Speed Wind Dir Waves Ship Positions

Silver Bergen

Last reported at 2014-Oct-30 07:11 UTC. Time now 2014-Nov-01 01:19 UTC.
Position N 55°32' E 015°03'.

Length 97 m; draft 5.9 m.

Type: Cargo ship. MMSI: 257951000.

Date/timePositionNaut miles runAvg speedWind from/ knotsBaromVisibWave heightAir tempDewpointWater temp
2014-Oct-30 07:11N 55°32' E 015°03'914.4
2014-Oct-30 06:33N 55°27' E 014°49'1414.4
2014-Oct-30 05:33N 55°17' E 014°30'4613.7
2014-Oct-30 02:12N 55°13' E 013°10'1014.3
2014-Oct-30 01:28N 55°15' E 012°52'1111.8
2014-Oct-30 00:34N 55°22' E 012°39'1414.1
2014-Oct-29 23:34N 55°36' E 012°42'1515.0
2014-Oct-29 22:34N 55°51' E 012°40'1414.2
2014-Oct-29 21:34N 56°05' E 012°34'1515.4
2014-Oct-29 20:34N 56°14' E 012°12'2014.5
2014-Oct-29 19:10N 56°33' E 011°56'1114.9
2014-Oct-29 18:24N 56°43' E 011°51'2814.3
2014-Oct-29 16:26N 57°10' E 011°34'1314.3
2014-Oct-29 15:33N 57°22' E 011°27'1414.1
2014-Oct-29 14:34N 57°33' E 011°11'1514.6
2014-Oct-29 13:34N 57°43' E 010°51'1514.7
2014-Oct-29 12:33N 57°46' E 010°24'12713.7
2014-Oct-29 03:16N 58°01' E 006°26'1013.7
2014-Oct-29 02:33N 58°06' E 006°09'41612.9
2014-Oct-27 18:21N 61°44' W 005°36'1113.9
2014-Oct-27 17:34N 61°51' W 005°53'1414.2
2014-Oct-27 16:34N 62°01' W 006°16'1514.0
2014-Oct-27 15:31N 62°12' W 006°37'2 0.1
2014-Oct-26 21:25N 62°10' W 006°35'8 9.7
2014-Oct-26 20:33N 62°03' W 006°45'6 5.7
2014-Oct-26 19:32N 62°06' W 006°56'0 0.0
2014-Oct-26 18:32N 62°06' W 006°56'0 0.0
2014-Oct-26 17:32N 62°06' W 006°56'0 0.0
2014-Oct-26 16:32N 62°06' W 006°56'0 0.0
2014-Oct-26 15:29N 62°06' W 006°56'0 0.0
2014-Oct-26 14:32N 62°06' W 006°56'0 0.0
2014-Oct-26 13:32N 62°06' W 006°56'0 0.0
2014-Oct-26 12:32N 62°06' W 006°56'0 0.0
2014-Oct-26 11:32N 62°06' W 006°56'0 0.0
2014-Oct-26 10:29N 62°06' W 006°56'0 0.0
2014-Oct-26 09:32N 62°06' W 006°56'0 0.0
2014-Oct-26 08:29N 62°06' W 006°56'0 0.0
2014-Oct-26 07:32N 62°06' W 006°56'0 0.0
2014-Oct-26 06:32N 62°06' W 006°56'0 0.0
2014-Oct-26 05:29N 62°06' W 006°56'0 0.0
2014-Oct-26 04:32N 62°06' W 006°56'0 0.0
2014-Oct-26 03:29N 62°06' W 006°56'0 0.0
2014-Oct-26 02:32N 62°06' W 006°56'0 0.0
2014-Oct-26 01:29N 62°06' W 006°56'0 0.0
2014-Oct-26 00:32N 62°06' W 006°56'0 0.0
2014-Oct-25 23:32N 62°06' W 006°56'0 0.0
2014-Oct-25 22:26N 62°06' W 006°56'0 0.0
2014-Oct-25 21:29N 62°06' W 006°56'0 0.0
2014-Oct-25 20:32N 62°06' W 006°56'0 0.0
2014-Oct-25 19:32N 62°06' W 006°56'0 0.1
2014-Oct-25 18:34N 62°06' W 006°56'6 6.0
2014-Oct-25 17:34N 62°03' W 006°45'6 6.1
2014-Oct-25 16:33N 61°58' W 006°51'9 8.9
2014-Oct-25 15:33N 62°05' W 007°02'2 0.2
2014-Oct-25 06:32N 62°03' W 007°02'1110.8
2014-Oct-25 05:33N 61°57' W 006°42'9 8.6
2014-Oct-25 04:34N 61°50' W 006°35'1414.0
2014-Oct-25 03:32N 61°36' W 006°41'6 0.1
2014-Oct-23 07:29N 61°31' W 006°35'36711.0
2014-Oct-21 22:12N 59°10' E 004°49'1014.6
2014-Oct-21 21:33N 59°02' E 004°58'1413.7
2014-Oct-21 20:33N 58°50' E 005°12'1612.9
2014-Oct-21 19:17N 58°36' E 005°28'913.1
2014-Oct-21 18:33N 58°28' E 005°38'1312.9
2014-Oct-21 17:34N 58°19' E 005°55'1413.9
2014-Oct-21 16:33N 58°09' E 006°14'13513.5
2014-Oct-21 06:33N 57°50' E 010°26'1110.8
2014-Oct-21 05:33N 57°48' E 010°46'1211.7
2014-Oct-21 04:33N 57°40' E 011°02'1211.8
2014-Oct-21 03:34N 57°32' E 011°18'1211.7
2014-Oct-21 02:33N 57°23' E 011°30'1211.9
2014-Oct-21 01:33N 57°12' E 011°39'1212.0
2014-Oct-21 00:33N 57°01' E 011°49'1211.8
2014-Oct-20 23:34N 56°50' E 011°58'1211.8
2014-Oct-20 22:33N 56°39' E 012°06'1111.5
2014-Oct-20 21:33N 56°29' E 012°15'1212.2
2014-Oct-20 20:34N 56°18' E 012°23'1312.9
2014-Oct-20 19:33N 56°06' E 012°34'1110.8
2014-Oct-20 18:33N 55°57' E 012°43'1212.0
2014-Oct-20 17:33N 55°45' E 012°42'1111.3
2014-Oct-20 16:33N 55°33' E 012°42'1312.9
2014-Oct-20 15:33N 55°21' E 012°40'1312.7
2014-Oct-20 14:33N 55°16' E 013°01'2813.9
2014-Oct-20 12:33N 55°14' E 013°50'1414.0
2014-Oct-20 11:33N 55°14' E 014°14'1313.1
2014-Oct-20 10:33N 55°24' E 014°29'1413.8
2014-Oct-20 09:33N 55°32' E 014°49'1513.6
2014-Oct-20 08:26N 55°39' E 015°12'1313.7
2014-Oct-20 07:30N 55°46' E 015°32'  

Dump ship's entire track history